{"data":{"norad_id":66283,"intl_designator":"2025-247U","name":"STARLINK-35774","alt_names":[],"object_type":"PAYLOAD","status":"ACTIVE","operator":null,"country":"US","launch_date":"2025-10-31","launch_site_code":"AFWTR","launch_vehicle":null,"mission":null,"orbit_class":"UNKNOWN","rcs_meters":null,"size_class":null,"mass_kg":null,"dimensions":null,"purposes":["comms"],"wikipedia_slug":null,"has_3d_model":false,"image_url":null,"decayed_at":null,"tle_current":{"epoch":"2026-05-24T12:45:26.158464Z","epoch_age_seconds":109492,"freshness":"FRESH","line1":"1 66283U 25247U   26144.53155276  .00010846  00000+0  37777-3 0  9998","line2":"2 66283  53.1585 199.2884 0001110  80.2819 279.8307 15.30199974 32645","mean_motion":15.30199974,"eccentricity":0.000111,"inclination_deg":53.1585,"raan_deg":199.2884,"arg_perigee_deg":80.2819,"mean_anomaly_deg":279.8307,"bstar":0.00037777,"rev_number":3264,"period_min":94.10534730541,"perigee_km":474.45442496232,"apogee_km":475.97586913896,"semimajor_km":6853.3521470506,"source":"CELESTRAK","updated_at":"2026-05-25T13:38:21.163937Z"}}}